Regional Weather Roundup
Issued by NWS

Home | Current Version | Previous Version | Text Only | Print | Product List | Glossary Off
Versions: 1 2 3 4 5 6 7 8 9 10 11 12 13 14 15 16 17 18 19 20 21 22 23 24 25 26 27 28 29 30 31 32 33 34 35 36 37 38 39 40 41 42 43 44 45 46 47 48 49 50

130
ASUS43 KBIS 120502
RWRND

NORTH DAKOTA REGIONAL WEATHER ROUNDUP
NATIONAL WEATHER SERVICE BISMARCK ND
1100 PM CST MON DEC 11 2017

NOTE: "FAIR" INDICATES FEW OR NO CLOUDS BELOW 12,000 FEET WITH NO
SIGNIFICANT WEATHER AND/OR OBSTRUCTIONS TO VISIBILITY.


NDZ001>003-009>011-017-120600-
NORTHWEST NORTH DAKOTA

CITY           SKY/WX    TMP DP  RH WIND       PRES   REMARKS
WILLISTON      CLEAR     25  23  93 W2        30.30F
MINOT          CLOUDY    27  23  85 SW8       30.26F WCI  19
MINOT AFB      CLOUDY    27  24  88 SW5       30.24F
$$

NDZ018>021-031>035-040>046-120600-
SOUTHWEST NORTH DAKOTA

CITY           SKY/WX    TMP DP  RH WIND       PRES   REMARKS
BISMARCK       CLEAR     18  16  92 S3        30.32S
DICKINSON      CLEAR     28  25  88 W9        30.28F WCI  19
GARRISON         N/A     25  24  96 W7        30.28F WCI  17
HETTINGER ARPT CLOUDY    30  23  75 W10       30.33F
$$

NDZ004>008-012>016-024-026-027-054-120600-
NORTHEAST NORTH DAKOTA

CITY           SKY/WX    TMP DP  RH WIND       PRES   REMARKS
GRAND FORKS    CLOUDY     4   2  91 SW6       30.31F WCI  -7
GRND FRKS AFB  CLOUDY     7   4  85 SW3       30.30F
DEVILS LAKE    CLEAR     14  12  92 W8        30.26F WCI   3
$$

NDZ022-023-025-028>030-036>039-047>053-120600-
SOUTHEAST NORTH DAKOTA

CITY           SKY/WX    TMP DP  RH WIND       PRES   REMARKS
FARGO          CLOUDY     6   3  87 NW3       30.33F
JAMESTOWN      CLOUDY    14  11  87 W8        30.29F WCI   3
$$





USA.gov is the U.S. government's official web portal to all federal, state and local government web resources and services.